Regional Weather Roundup
Issued by NWS

Home | Current Version | Previous Version | Graphics & Text | Print | Product List | Glossary On
Versions: 1 2 3 4 5 6 7 8 9 10 11 12 13 14 15 16 17 18 19 20 21 22 23 24 25 26 27 28 29 30 31 32 33 34 35 36 37 38 39 40 41 42 43 44 45 46 47 48 49 50
000
ASUS43 KLOT 231910
RWRIL

ILLINOIS REGIONAL WEATHER ROUNDUP
NATIONAL WEATHER SERVICE CHICAGO/ROMEOVILLE IL
200 PM CDT TUE SEP 23 2014

NOTE: "FAIR" INDICATES FEW OR NO CLOUDS BELOW 12,000 FEET WITH NO
SIGNIFICANT WEATHER AND/OR OBSTRUCTIONS TO VISIBILITY.

* THESE STATIONS ARE NOT UNDER NWS QUALITY CONTROL. THEY ALSO MAY NOT
  REPORT WEATHER SUCH AS PRECIPITATION OR FOG.

ILZ001-002-007-009-015-016-024-232000-
NORTHWEST ILLINOIS

CITY           SKY/WX    TMP DP  RH WIND       PRES   REMARKS
MOLINE         SUNNY     73  46  38 SE5       30.28F
STERLING*      SUNNY     73  48  40 W3        30.30F
SAVANNA*       SUNNY     72  47  40 SW5       30.29F
$$

ILZ003-004-008-010-011-017-018-232000-
NORTH CENTRAL ILLINOIS

CITY           SKY/WX    TMP DP  RH WIND       PRES   REMARKS
ROCKFORD       MOSUNNY   73  48  41 CALM      30.31F
DE KALB*       SUNNY     69  49  47 SW3       30.32F
PERU*          SUNNY     73  45  36 SE6       30.31F
$$

ILZ005-006-012>014-019>023-232000-
NORTHEAST ILLINOIS

CITY           SKY/WX    TMP DP  RH WIND       PRES   REMARKS
CHICAGO-OHARE  MOSUNNY   69  46  43 SW6       30.32F
CHICAGO-MIDWAY MOSUNNY   73  49  42 SW8       30.33F
AURORA         SUNNY     73  49  42 SW6       30.32F
LANSING*       SUNNY     71  49  45 SW6       30.33F
JOLIET*        SUNNY     71  47  41 E5        30.33F
WAUKEGAN       SUNNY     71  49  45 W5        30.31F
DUPAGE AIRPORT SUNNY     73  49  42 S8        30.32F
KANKAKEE*      SUNNY     71  49  45 E5        30.33F
WHEELING       SUNNY     73  47  39 S5        30.33F
MORRIS*        SUNNY     73  48  41 S5        30.31F
ROMEOVILLE*    SUNNY     71  46  41 SE3       30.33F
NORTHERLY ISL    N/A     67  52  58 E9          N/A
$$

LMZ740>746-232000-
SOUTHERN LAKE MICHIGAN

STATION/POSITION SKY/WX   TEMP    WIND        PRES    VSBY  WAVE
                          AIR SEA DIR/SP/G                  HT/PER
                          (F)     (DEG/KT/KT) (MB)    (MI)  (FT/S)
SOUTHERN BUOY              62 61  210/  8/ 10 1027.3F         1/ 3
WAUKEGAN HARBOR            63     130/  7/ 10   N/A
BURNHAM HARBOR             68     100/  7/ 10   N/A
CALUMET HARBOR             70      90/  1/  5 1025.8F
MICHIGAN CITY 6N           64 64  330/  6/  6   N/A           1
ST. JOSEPH                 62 65  280/  6/  8   N/A           1/ 3
$$

ILZ025>027-034>036-040-047-049-050-058-095>099-232000-
WEST-CENTRAL ILLINOIS

CITY           SKY/WX    TMP DP  RH WIND       PRES   REMARKS
QUINCY         PTSUNNY   71  45  39 S7        30.28F
GALESBURG*     SUNNY    N/A N/A N/A CALM      30.29F
MACOMB*        SUNNY     74  43  32 S7        30.31F
JACKSONVILLE*  SUNNY     76  46  33 E6        30.30F
PITTSFIELD*    MOSUNNY   75  47  36 S6        30.29F
$$

ILZ028>032-037-038-041>044-048-051>054-059>061-232000-
CENTRAL ILLINOIS

CITY           SKY/WX    TMP DP  RH WIND       PRES   REMARKS
PONTIAC          N/A     73  45  35 S6        30.31F
BLOOMINGTON    SUNNY     73  46  38 VRB3      30.32F
DECATUR        SUNNY     73  45  36 SE8       30.31F
PEORIA         SUNNY     74  47  38 S8        30.30F
LACON*         SUNNY     71  48  43 SW5       30.29F
LINCOLN*       SUNNY     75  45  34 E6        30.27F
SPRINGFIELD    SUNNY     73  48  41 VRB3      30.30F
TAYLORVILLE    SUNNY     72  46  40 E3        30.30F
$$

ILZ033-039-045-046-055>057-062-063-232000-
EAST-CENTRAL ILLINOIS

CITY           SKY/WX    TMP DP  RH WIND       PRES   REMARKS
CHAMPAIGN      SUNNY     73  45  36 CALM      30.32F
DANVILLE*      SUNNY     72  46  40 NE5       30.30F HAZE
RANTOUL*       SUNNY     74  41  29 E5        30.33F
MATTOON        SUNNY     70  45  40 E5        30.31F
PARIS*         SUNNY     72  48  41 E5        30.32F
$$

ILZ079-100>102-232000-
SOUTHWEST ILLINOIS

CITY           SKY/WX    TMP DP  RH WIND       PRES   REMARKS
ALTON          SUNNY     73  41  31 CALM      30.29F
BELLEVILLE     SUNNY     73  46  38 VRB5      30.28F
CAHOKIA*       SUNNY     75  48  38 MISG      30.29F
SPARTA*        SUNNY     72  48  42 E5        30.29F
$$

ILZ064>066-069>071-074>076-080>082-084>086-088>090-092>094-232000-
SOUTH-CENTRAL ILLINOIS

CITY           SKY/WX    TMP DP  RH WIND       PRES   REMARKS
CARBONDALE     SUNNY     73  46  38 E7        30.29F
CAIRO*         SUNNY     76  47  36 E7        30.27F
EFFINGHAM*     SUNNY     73  40  30 E7        30.31F
MARION         MOSUNNY   73  46  38 N8        30.30F
MT. VERNON     SUNNY     72  48  43 N9        30.31F
CENTRALIA*     SUNNY     72  46  38 CALM      30.30F
SALEM*         SUNNY     73  49  43 E6        30.31F
METROPOLIS*    SUNNY     75  46  36 E6        30.26F
$$

ILZ067-068-072-073-078-083-087-091-232000-
SOUTHEAST ILLINOIS

CITY           SKY/WX    TMP DP  RH WIND       PRES   REMARKS
LAWRENCEVILLE  SUNNY     73  46  38 VRB3      30.31F
FLORA*         SUNNY     72  45  37 NE6       30.30F HAZE
FAIRFIELD*     SUNNY    N/A N/A N/A NE6       30.30F
HARRISBURG*    SUNNY     73  43  34 NE7       30.29F
ROBINSON*      SUNNY     73  50  44 CALM      30.32F HAZE
CARMI*         SUNNY     74  47  37 NE5       30.29F
$$

ABBREVIATIONS USED IN REMARKS
   TC - TEMPERATURE IN CELSIUS
  WCI - WIND CHILL INDEX
   HX - HEAT INDEX
  VSB - VISIBILITY
$$



USA.gov is the U.S. government's official web portal to all federal, state and local government web resources and services.